Change the Weather History Date:

Tuesday, June 5, 2012

  Actual Average Record
Temperature  
Mean Temperature 60 °F 68 °F  
Max Temperature 68 °F 77 °F 98 °F (1925)
Min Temperature 51 °F 58 °F 40 °F (1990)
Degree Days  
Heating Degree Days 5 2  
Month to date heating degree days 18 10  
Since 1 June heating degree days 18 10  
Since 1 July heating degree days 4603 5630  
Cooling Degree Days 0 4  
Month to date cooling degree days 3 20  
Year to date cooling degree days 186 90  
Since 1 June cooling degree days 3 20  
Growing Degree Days 10 (Base 50)    
Moisture  
Dew Point 47 °F    
Average Humidity 66    
Maximum Humidity 83    
Minimum Humidity 48    
Precipitation  
Precipitation 0.01 in 0.14 in 3.76 in (1981)
Month to date precipitation 0.59 0.73  
Year to date precipitation 13.46 17.77  
Snow  
Snow 0.00 in 0.00 in 0.00 in ()
Month to date snowfall 0.0 0.0  
Since 1 June snowfall 0.0 0.0  
Since 1 July snowfall 9.2 23.3  
Snow Depth 0.00 in    
Sea Level Pressure  
Sea Level Pressure 29.93 in    
Wind  
Wind Speed 8 mph (NNE)    
Max Wind Speed 21 mph    
Max Gust Speed 24 mph    
Visibility 10 miles    
Events      
T = Trace of Precipitation, MM = Missing Value Source: NWS Daily Summary

Daily Weather History Graph

Daily Weather History Graph

Search for Another Location

Airport or City:

Trip Planner

Search our weather history database for the weather conditions in past years. The results will help you decide how hot, cold, wet, or windy it might be!

Date:

Astronomy

Jun. 05, 2012 Rise Set
Actual Time 6:08 AM EDT 9:02 PM EDT
Civil Twilight 5:36 AM EDT 9:34 PM EDT
Nautical Twilight 4:55 AM EDT 10:15 PM EDT
Astronomical Twilight 4:08 AM EDT 11:02 PM EDT
Moon 10:26 PM EDT (6/5) 7:19 AM EDT (6/5)
Length of Visible Light 15h 58m
Length of Day
14h 53m
Full, 98% of the Moon is Illuminated
Jun 5
Full
Jun 11
Last Quarter
Jun 19
New
Jun 26
First Quarter
Jul 3
Full

Hourly Weather History & Observations

Time (EDT) Temp. Dew Point Humidity Pressure Visibility Wind Dir Wind Speed Gust Speed Precip Events Conditions
12:56 AM 57.0 °F 48.0 °F 72% 29.86 in 10.0 mi NE 6.9 mph - N/A   Clear
1:56 AM 57.0 °F 46.9 °F 69% 29.87 in 10.0 mi NNE 4.6 mph - N/A   Clear
2:56 AM 55.9 °F 46.9 °F 72% 29.87 in 10.0 mi North 4.6 mph - N/A   Clear
3:56 AM 54.0 °F 46.9 °F 77% 29.88 in 10.0 mi NNE 5.8 mph - N/A   Clear
4:56 AM 53.1 °F 46.9 °F 80% 29.88 in 10.0 mi NNE 5.8 mph - N/A   Clear
5:56 AM 53.1 °F 48.0 °F 83% 29.90 in 10.0 mi North 5.8 mph - N/A   Clear
6:56 AM 53.1 °F 48.9 °F 86% 29.92 in 10.0 mi North 4.6 mph - N/A   Partly Cloudy
7:56 AM 57.9 °F 51.1 °F 78% 29.93 in 10.0 mi NNE 6.9 mph - N/A   Partly Cloudy
8:56 AM 61.0 °F 51.1 °F 70% 29.93 in 10.0 mi NNE 9.2 mph - N/A   Scattered Clouds
9:56 AM 63.0 °F 50.0 °F 63% 29.94 in 10.0 mi North 8.1 mph - N/A   Partly Cloudy
10:56 AM 64.0 °F 48.0 °F 56% 29.95 in 10.0 mi North 11.5 mph - N/A   Scattered Clouds
11:56 AM 66.9 °F 48.0 °F 51% 29.95 in 10.0 mi North 9.2 mph - N/A   Mostly Cloudy
12:56 PM 66.0 °F 46.0 °F 48% 29.94 in 10.0 mi North 11.5 mph - N/A   Mostly Cloudy
1:56 PM 64.9 °F 46.0 °F 50% 29.94 in 10.0 mi NNE 16.1 mph 20.7 mph N/A   Overcast
2:56 PM 64.9 °F 46.9 °F 52% 29.94 in 10.0 mi North 6.9 mph - N/A   Overcast
3:56 PM 62.1 °F 48.9 °F 62% 29.95 in 10.0 mi NE 15.0 mph - N/A   Overcast
4:56 PM 64.0 °F 48.0 °F 56% 29.95 in 10.0 mi North 12.7 mph - 0.00 in   Overcast
5:56 PM 64.0 °F 46.0 °F 52% 29.95 in 10.0 mi NNE 13.8 mph - 0.00 in   Overcast
6:56 PM 64.9 °F 44.1 °F 47% 29.95 in 10.0 mi NNE 12.7 mph - N/A   Overcast
7:56 PM 62.1 °F 44.1 °F 52% 29.95 in 10.0 mi NNE 11.5 mph - N/A   Scattered Clouds
8:56 PM 57.9 °F 45.0 °F 62% 29.96 in 10.0 mi NNE 6.9 mph - N/A   Scattered Clouds
9:56 PM 55.9 °F 45.0 °F 67% 29.96 in 10.0 mi NNE 4.6 mph - N/A   Mostly Cloudy
10:56 PM 57.0 °F 45.0 °F 64% 29.97 in 10.0 mi NNE 5.8 mph - N/A   Overcast
11:56 PM 57.0 °F 45.0 °F 64% 29.98 in 10.0 mi North 3.5 mph - N/A   Mostly Cloudy